TimeCST,TemperatureF,Dew PointF,Humidity,Sea Level PressureIn,VisibilityMPH,Wind Direction,Wind SpeedMPH,Gust SpeedMPH,PrecipitationIn,Events,Conditions,WindDirDegrees,DateUTC
12:16 AM,-23.8,-29.2,76,30.16,-9999.0,Calm,Calm,-,N/A,,Clear,0,2013-01-22 06:16:00
12:37 AM,-23.8,-29.2,76,30.16,-9999.0,West,3.5,-,N/A,,Clear,260,2013-01-22 06:37:00
12:57 AM,-25.6,-29.2,83,30.16,-9999.0,West,3.5,-,N/A,,Clear,260,2013-01-22 06:57:00
1:16 AM,-25.6,-31.0,76,30.16,-9999.0,Calm,Calm,-,N/A,,Clear,0,2013-01-22 07:16:00
1:37 AM,-25.6,-29.2,83,30.18,-9999.0,West,3.5,-,N/A,,Clear,270,2013-01-22 07:37:00
1:57 AM,-25.6,-31.0,76,30.18,-9999.0,Calm,Calm,-,N/A,,Clear,0,2013-01-22 07:57:00
2:16 AM,-25.6,-31.0,76,30.18,-9999.0,Calm,Calm,-,N/A,,Clear,0,2013-01-22 08:16:00
2:37 AM,-25.6,-31.0,76,30.19,-9999.0,Calm,Calm,-,N/A,,Clear,0,2013-01-22 08:37:00
2:57 AM,-25.6,-31.0,76,30.18,-9999.0,Calm,Calm,-,N/A,,Clear,0,2013-01-22 08:57:00
3:16 AM,-25.6,-32.8,69,30.18,-9999.0,Calm,Calm,-,N/A,,Clear,0,2013-01-22 09:16:00
3:37 AM,-27.4,-32.8,75,30.19,-9999.0,Calm,Calm,-,N/A,,Clear,0,2013-01-22 09:37:00
3:57 AM,-27.4,-32.8,75,30.19,-9999.0,Calm,Calm,-,N/A,,Clear,0,2013-01-22 09:57:00
4:16 AM,-29.2,-34.6,75,30.20,-9999.0,Calm,Calm,-,N/A,,Clear,0,2013-01-22 10:16:00
4:37 AM,-29.2,-34.6,75,30.19,-9999.0,Calm,Calm,-,N/A,,Clear,0,2013-01-22 10:37:00
4:57 AM,-27.4,-34.6,69,30.19,-9999.0,Calm,Calm,-,N/A,,Clear,0,2013-01-22 10:57:00
5:16 AM,-27.4,-34.6,69,30.20,-9999.0,Calm,Calm,-,N/A,,Clear,0,2013-01-22 11:16:00
5:37 AM,-27.4,-34.6,69,30.21,-9999.0,Calm,Calm,-,N/A,,Clear,0,2013-01-22 11:37:00
5:57 AM,-29.2,-34.6,75,30.21,-9999.0,Calm,Calm,-,N/A,,Clear,0,2013-01-22 11:57:00
6:16 AM,-27.4,-34.6,69,30.21,-9999.0,Calm,Calm,-,N/A,,Clear,0,2013-01-22 12:16:00
6:37 AM,-27.4,-34.6,69,30.21,-9999.0,Calm,Calm,-,N/A,,Clear,0,2013-01-22 12:37:00
6:56 AM,-27.4,-34.6,69,30.20,-9999.0,Calm,Calm,-,N/A,,Clear,0,2013-01-22 12:56:00
7:17 AM,-29.2,-36.4,68,30.20,-9999.0,Calm,Calm,-,N/A,,Clear,0,2013-01-22 13:17:00
7:37 AM,-29.2,-36.4,68,30.20,-9999.0,Calm,Calm,-,N/A,,Clear,0,2013-01-22 13:37:00
7:56 AM,-29.2,-36.4,68,30.20,-9999.0,Calm,Calm,-,N/A,,Clear,0,2013-01-22 13:56:00
8:17 AM,-29.2,-36.4,68,30.21,-9999.0,Calm,Calm,-,N/A,,Clear,0,2013-01-22 14:17:00
8:36 AM,-25.6,-32.8,69,30.21,-9999.0,Calm,Calm,-,N/A,,Clear,0,2013-01-22 14:36:00
8:56 AM,-25.6,-31.0,76,30.22,-9999.0,Calm,Calm,-,N/A,,Clear,0,2013-01-22 14:56:00
9:17 AM,-23.8,-27.4,83,30.22,-9999.0,Calm,Calm,-,N/A,,Clear,0,2013-01-22 15:17:00
9:36 AM,-20.2,-25.6,76,30.22,-9999.0,Calm,Calm,-,N/A,,Clear,0,2013-01-22 15:36:00
9:56 AM,-20.2,-25.6,76,30.22,-9999.0,West,3.5,-,N/A,,Clear,280,2013-01-22 15:56:00
10:17 AM,-18.4,-23.8,76,30.22,-9999.0,Calm,Calm,-,N/A,,Clear,0,2013-01-22 16:17:00
10:36 AM,-16.6,-20.2,84,30.22,-9999.0,WNW,4.6,-,N/A,,Clear,290,2013-01-22 16:36:00
10:56 AM,-14.8,-20.2,77,30.22,-9999.0,WNW,4.6,-,N/A,,Clear,290,2013-01-22 16:56:00
11:17 AM,-14.8,-20.2,77,30.22,-9999.0,West,5.8,-,N/A,,Clear,270,2013-01-22 17:17:00
11:36 AM,-13.0,-18.4,77,30.21,-9999.0,West,6.9,-,N/A,,Clear,270,2013-01-22 17:36:00
11:56 AM,-11.2,-18.4,70,30.20,-9999.0,West,5.8,-,N/A,,Clear,270,2013-01-22 17:56:00
12:17 PM,-9.4,-18.4,65,30.19,-9999.0,West,5.8,-,N/A,,Clear,280,2013-01-22 18:17:00
12:36 PM,-9.4,-18.4,65,30.19,10.0,West,4.6,-,N/A,,Clear,270,2013-01-22 18:36:00
12:57 PM,-7.6,-16.6,65,30.19,10.0,West,8.1,-,N/A,,Clear,270,2013-01-22 18:57:00
1:17 PM,-7.6,-16.6,65,30.18,10.0,West,6.9,-,N/A,,Clear,270,2013-01-22 19:17:00
1:36 PM,-5.8,-16.6,60,30.17,10.0,West,9.2,-,N/A,,Clear,280,2013-01-22 19:36:00
1:57 PM,-5.8,-16.6,60,30.17,10.0,West,5.8,-,N/A,,Clear,280,2013-01-22 19:57:00
2:16 PM,-5.8,-14.8,65,30.16,10.0,West,5.8,-,N/A,,Clear,280,2013-01-22 20:16:00
2:37 PM,-4.0,-14.8,60,30.16,10.0,West,6.9,-,N/A,,Clear,270,2013-01-22 20:37:00
2:56 PM,-4.0,-14.8,60,30.17,10.0,West,6.9,-,N/A,,Clear,260,2013-01-22 20:56:00
3:17 PM,-2.2,-14.8,55,30.16,10.0,West,5.8,-,N/A,,Clear,270,2013-01-22 21:17:00
3:37 PM,-2.2,-13.0,60,30.15,10.0,West,8.1,-,N/A,,Clear,270,2013-01-22 21:37:00
3:56 PM,-2.2,-13.0,60,30.15,10.0,West,6.9,-,N/A,,Clear,260,2013-01-22 21:56:00
4:17 PM,-2.2,-13.0,60,30.15,10.0,WSW,6.9,-,N/A,,Clear,240,2013-01-22 22:17:00
4:36 PM,-2.2,-13.0,60,30.15,10.0,WSW,8.1,-,N/A,,Clear,240,2013-01-22 22:36:00
4:57 PM,-2.2,-13.0,60,30.14,10.0,SW,4.6,-,N/A,,Clear,230,2013-01-22 22:57:00
5:17 PM,-4.0,-13.0,65,30.15,10.0,Calm,Calm,-,N/A,,Clear,0,2013-01-22 23:17:00
5:36 PM,-4.0,-13.0,65,30.15,10.0,SW,4.6,-,N/A,,Clear,230,2013-01-22 23:36:00
5:57 PM,-5.8,-13.0,71,30.14,10.0,SW,3.5,-,N/A,,Clear,230,2013-01-22 23:57:00
6:17 PM,-5.8,-14.8,65,30.13,10.0,Calm,Calm,-,N/A,,Clear,0,2013-01-23 00:17:00
6:37 PM,-5.8,-14.8,65,30.13,10.0,Calm,Calm,-,N/A,,Clear,0,2013-01-23 00:37:00
6:57 PM,-7.6,-14.8,71,30.12,10.0,Calm,Calm,-,N/A,,Clear,0,2013-01-23 00:57:00
7:16 PM,-7.6,-14.8,71,30.12,10.0,Calm,Calm,-,N/A,,Clear,0,2013-01-23 01:16:00
7:37 PM,-9.4,-14.8,77,30.11,10.0,SSW,3.5,-,N/A,,Clear,200,2013-01-23 01:37:00
7:57 PM,-9.4,-16.6,71,30.10,10.0,Calm,Calm,-,N/A,,Clear,0,2013-01-23 01:57:00
8:16 PM,-9.4,-16.6,71,30.10,10.0,Calm,Calm,-,N/A,,Clear,0,2013-01-23 02:16:00
8:37 PM,-9.4,-16.6,71,30.10,10.0,SW,3.5,-,N/A,,Clear,220,2013-01-23 02:37:00
8:57 PM,-9.4,-16.6,71,30.09,10.0,SSW,3.5,-,N/A,,Clear,210,2013-01-23 02:57:00
9:17 PM,-9.4,-14.8,77,30.10,10.0,SW,3.5,-,N/A,,Clear,230,2013-01-23 03:17:00
9:37 PM,-9.4,-16.6,71,30.10,10.0,Calm,Calm,-,N/A,,Clear,0,2013-01-23 03:37:00
9:56 PM,-9.4,-16.6,71,30.10,10.0,SW,3.5,-,N/A,,Clear,220,2013-01-23 03:56:00
10:17 PM,-9.4,-16.6,71,30.10,10.0,SW,4.6,-,N/A,,Clear,230,2013-01-23 04:17:00
10:37 PM,-11.2,-16.6,77,30.10,10.0,WSW,4.6,-,N/A,,Clear,250,2013-01-23 04:37:00
10:56 PM,-9.4,-16.6,71,30.09,10.0,SW,3.5,-,N/A,,Clear,220,2013-01-23 04:56:00
11:17 PM,-11.2,-16.6,77,30.08,10.0,Calm,Calm,-,N/A,,Clear,0,2013-01-23 05:17:00
11:37 PM,-11.2,-16.6,77,30.08,10.0,Calm,Calm,-,N/A,,Clear,0,2013-01-23 05:37:00
11:56 PM,-11.2,-16.6,77,30.08,10.0,Calm,Calm,-,N/A,,Clear,0,2013-01-23 05:56:00